Location: Littleton
(51.0833°N, 1.3500°W)
Time: 01:20:28
(UTC+00:00)

Daily predictions for brighter satellites

Satellite Brightness Start Highest point End
(mag) Time Altitude Azimuth Time Altitude Azimuth Time Altitude Azimuth
SL-16 R/B 4.4 03:46:47 19° NNE 03:46:47 19° NNE 03:48:16 10° NNE
Cosmos 2360 Rocket 4.0 03:49:56 25° NE 03:49:56 25° NE 03:52:15 10° NE
Cosmos 2322 Rocket 4.3 03:51:41 20° NNE 03:51:41 20° NNE 03:53:21 10° NNE
Cosmos 1867 4.3 04:44:48 43° NNE 04:44:48 43° NNE 04:48:40 10° NE
Cosmos 2278 Rocket 2.4 04:42:59 63° NNE 04:43:28 66° ENE 04:49:06 10° SE
Cosmos 1937 Rocket 3.8 04:43:44 63° ENE 04:43:44 63° ENE 04:48:56 10° SE
Cosmos 1943 Rocket 4.3 04:42:32 14° N 04:45:35 21° NE 04:49:51 10° E
Cosmos 44 Rocket 3.7 04:49:27 66° ESE 04:49:27 66° ESE 04:53:58 10° SE
ALOS 3.9 04:44:44 10° NNE 04:46:41 25° NNE 04:46:41 25° NNE
USA 215 3.4 04:43:53 10° ENE 04:50:15 58° N 04:50:54 55° NW
Cosmos 2322 3.6 04:56:41 78° NNW 04:56:41 78° NNW 05:02:12 10° NNE
Cosmos 2084 4.3 04:58:15 46° ENE 04:58:15 46° ENE 05:01:26 10° NE
Cosmos 2237 Rocket 3.9 04:52:14 10° SSE 04:57:10 32° ESE 05:02:09 10° NE
Cosmos 2233 Rocket 4.2 05:01:19 51° NNW 05:01:19 51° NNW 05:06:14 10° N
Cosmos 2219 Rocket 2.1 04:59:59 75° SSW 05:00:28 87° ESE 05:06:07 10° NNE
CZ-4B R/B 4.5 04:56:41 10° NNE 05:01:10 64° ESE 05:01:24 63° ESE
CZ-4B R/B 4.5 04:59:44 10° NNE 05:02:59 30° E 05:06:16 10° SSE
Cosmos 2333 Rocket 2.0 05:02:50 80° WSW 05:03:06 83° WNW 05:08:49 10° NNE
Lacrosse 5 rocket 2.3 05:06:23 40° ESE 05:06:23 40° ESE 05:08:53 10° ESE
IRIDIUM 104 4.2 05:00:35 10° S 05:05:48 90° ESE 05:11:04 10° N
GEOS 3 Rocket 3.6 05:01:09 10° SE 05:06:33 88° SW 05:07:17 68° NW
Cosmos 921 Rocket 3.4 05:06:41 61° ESE 05:06:41 61° ESE 05:10:48 10° NNE
Cosmos 1932 4.4 05:06:03 63° W 05:06:45 68° NW 05:13:11 10° NE
MOS 1 Rocket 3.6 05:05:23 10° SSE 05:10:17 65° ENE 05:13:19 22° N
IRIDIUM 114 4.1 05:09:43 10° S 05:14:56 77° W 05:20:12 10° N
Cosmos 540 Rocket 4.5 05:10:42 10° S 05:15:32 45° ESE 05:20:25 10° NE
Cosmos 1241 Rocket 4.4 05:13:40 45° NW 05:15:52 81° SW 05:22:25 10° SSE
COSMO-SKYMED 1 3.0 05:14:38 10° S 05:17:53 50° S 05:17:53 50° S
COSMOS 2428 2.6 05:21:27 44° SW 05:23:19 78° WNW 05:29:03 10° NNE
IRIDIUM 103 4.2 05:18:56 10° SSW 05:24:07 65° W 05:29:21 10° N
Cosmos 2333 4.3 05:24:22 51° NW 05:24:26 51° NW 05:29:57 10° NNE
Cosmos 1513 Rocket 4.4 05:18:28 10° S 05:24:47 90° WNW 05:31:02 10° N
ADEOS 3.4 05:20:58 10° NNE 05:26:12 74° WNW 05:29:54 20° SSW
SL-16 R/B 3.8 05:28:38 20° NNW 05:28:38 20° NNW 05:31:54 10° NNE
Cosmos 1980 4.3 05:24:31 10° S 05:30:02 57° ESE 05:35:35 10° NE
Cosmos 2360 Rocket 3.1 05:31:43 30° NNW 05:31:43 30° NNW 05:36:05 10° NNE
CZ-2C R/B 4.3 05:27:21 10° N 05:28:47 17° NNW 05:28:47 17° NNW
Cosmos 2322 Rocket 3.6 05:33:30 21° NNW 05:33:30 21° NNW 05:36:58 10° NNE
Cosmos 1891 Rocket 4.3 05:27:47 10° SSW 05:33:58 77° W 05:40:05 10° N
Cosmos 2084 Rocket 4.2 05:33:11 36° NNW 05:34:31 50° NE 05:38:51 10° ESE
FENGYUN 3A 3.9 05:29:51 10° N 05:34:53 44° WNW 05:34:53 44° WNW
Cosmos 1544 Rocket 3.6 05:30:46 10° S 05:35:04 77° E 05:39:25 10° NNE
Meteor PRIRODA 3.8 05:33:28 10° NNE 05:37:06 70° ESE 05:40:43 10° S
Cosmos 1464 Rocket 3.8 05:31:44 10° SSW 05:37:51 78° W 05:44:04 10° N
ERS-2 3.1 05:34:29 10° S 05:36:48 36° S 05:36:48 36° S
Meteor 2-10 4.1 05:33:50 10° SSW 05:39:24 63° WNW 05:44:49 10° N
IRIDIUM 106 4.5 05:37:29 10° SSW 05:42:30 47° W 05:47:34 10° N
Cosmos 1072 Rocket 4.4 05:37:01 10° SSW 05:43:11 68° WNW 05:49:32 10° N
Cosmos 1726 4.3 05:48:16 15° N 05:48:16 15° N 05:49:01 10° N
Cosmos 1763 Rocket 3.4 05:42:48 27° SW 05:45:37 63° WNW 05:50:52 10° NNE
Okean 1-7 Rocket 3.8 05:46:14 47° W 05:46:31 48° W 05:50:50 10° SSW
Cosmos 1980 Rocket 4.3 05:47:25 10° NNW 05:48:14 11° NNW 05:49:37 10° N
Cosmos 1626 Rocket 3.4 05:46:17 12° NNW 05:50:23 78° W 05:54:51 10° S
Cosmos 1908 3.4 05:48:13 10° S 05:52:00 72° E 05:55:49 10° NNE
Cosmos 1898 Rocket 4.4 05:53:08 29° WSW 05:53:08 29° WSW 05:56:48 10° SSW
Cosmos 841 Rocket 3.5 05:47:25 10° SSW 05:52:33 82° ESE 05:57:44 10° NNE
Cosmos 1953 2.1 05:50:42 10° SSW 05:54:40 72° WNW 05:58:39 10° N
ATLAS CENTAUR R/B 3.7 05:54:47 10° S 05:57:41 22° ESE 06:00:34 10° ENE
H-2A R/B 4.3 05:55:18 10° NNE 05:59:28 36° E 06:03:38 10° SSE
BREEZE-M DEB (TANK) 4.1 05:55:17 25° W 05:59:33 40° SW 06:03:14 10° SSE
Meteor 1-16 Rocket 4.3 05:55:43 10° S 06:01:38 90° W 06:07:37 10° NNE
Cosmos 1092 Rocket 3.9 05:55:36 10° N 06:01:47 89° W 06:07:58 10° S
Cosmos 1455 Rocket 3.4 06:00:00 26° SW 06:01:54 40° WNW 06:06:01 10° N
Cosmos 2098 Rocket 4.2 05:58:21 10° N 06:04:50 64° ENE 06:10:01 10° SSE
Cosmos 2298 Rocket 4.0 06:02:09 11° NNW 06:07:20 90° NE 06:12:41 10° SSE
Cosmos 1570 Rocket 3.9 06:05:23 10° SSW 06:10:38 87° WNW 06:15:55 10° NNE
deb Chang Zheng 4 3.7 06:07:38 10° N 06:11:43 45° WNW 06:15:45 10° SW
Cosmos 1758 Rocket 3.7 06:08:37 10° N 06:13:09 78° E 06:17:37 10° SSE
Cosmos 1340 2.8 06:12:24 22° NNW 06:14:31 47° W 06:18:07 10° S
Cosmos 2034 Rocket 4.0 06:09:47 10° SSW 06:16:04 60° WNW 06:22:23 10° N
Nadezhda 4 Rocket 4.2 06:11:44 10° NNW 06:17:31 45° W 06:23:16 10° SSW
SAR-Lupe-4 4.4 06:17:17 10° SSW 06:20:25 28° W 06:20:46 27° W
Cosmos 2369 Rocket 3.1 06:15:59 10° NNW 06:21:23 45° NE 06:26:44 10° ESE
Cosmos 1461 3.4 06:18:29 18° WSW 06:21:53 52° NW 06:26:34 10° NE
Okean O Rocket 3.0 06:18:39 10° NNE 06:22:50 42° E 06:26:58 10° S
Cosmos 372 Rocket 4.4 06:20:31 16° NW 06:24:21 41° WSW 06:29:13 10° S
Meteor 1-11 4.1 06:18:45 10° NNW 06:24:22 79° W 06:29:56 10° S
FALCON 9 DEB 3.5 06:23:26 15° SW 06:26:04 60° SSE 06:29:27 10° ENE
ALOS 4.0 06:23:23 10° NNW 06:25:12 15° NW 06:25:12 15° NW
Cosmos 1703 3.8 06:24:09 15° NNW 06:26:51 35° W 06:30:25 10° SSW
Cosmos 1125 Rocket 3.5 06:21:44 10° NNW 06:27:04 90° N 06:32:24 10° SSE
Cosmos 2278 Rocket 3.2 06:24:53 20° WNW 06:27:05 25° WSW 06:31:37 10° SSW
CZ-4B R/B 4.1 06:22:49 10° NNE 06:28:24 54° E 06:33:53 10° S
SL-16 R/B 2.9 06:23:34 10° S 06:29:06 57° ESE 06:34:39 10° NE
Cosmos 1943 Rocket 2.4 06:24:36 10° NNW 06:30:18 77° ENE 06:35:59 10° SE
Envisat 2.9 06:25:35 10° N 06:30:39 68° WNW 06:35:41 10° SSW
Cosmos 1602 Rocket 3.9 06:26:48 10° NNW 06:31:00 42° W 06:35:12 10° SSW
Cosmos 1634 Rocket 4.0 06:25:01 10° S 06:31:11 90° E 06:37:26 10° N
Cosmos 1814 Rocket 3.9 06:26:49 10° SW 06:31:56 67° WNW 06:37:04 10° NNE
Cosmos 2208 Rocket 4.0 06:26:30 10° SSW 06:31:56 73° WNW 06:37:23 10° NNE
USA 215 3.6 06:26:28 10° E 06:32:49 57° N 06:38:15 15° WNW
H-2A R/B 3.3 06:32:01 10° N 06:35:22 33° WNW 06:38:43 10° SW
Cosmos 1346 Rocket 2.7 06:31:45 10° NNW 06:35:43 69° W 06:39:40 10° S
CZ-2C R/B 2.6 06:30:42 10° S 06:35:55 71° WSW 06:41:18 10° NNW
CZ-4B R/B 3.6 06:35:02 10° N 06:38:01 24° WNW 06:41:00 10° WSW
NOAA 6 4.0 06:34:54 10° NNE 06:40:07 77° WNW 06:45:18 10° SSW
PAYLOAD B 4.3 06:34:35 10° NNE 06:40:12 86° ESE 06:45:49 10° SSW
AQUARIUS 4.4 06:35:47 10° NNE 06:40:19 75° ESE 06:44:48 10° S
Cosmos 2237 Rocket 2.3 06:35:26 10° SW 06:41:00 54° NW 06:46:37 10° NNE
Cosmos 1689 Rocket 4.2 06:41:06 10° SW 06:41:40 12° WSW 06:41:40 12° WSW
SWAS 4.4 06:39:00 10° SW 06:43:16 81° WNW 06:47:34 10° NNE
Lacrosse 5 rocket 2.8 06:42:01 15° W 06:43:43 19° SW 06:46:27 10° S
Cosmos 2219 Rocket 3.3 06:41:45 14° W 06:45:10 24° NW 06:49:41 10° NNE
Cosmos 921 Rocket 4.3 06:43:32 15° W 06:45:19 19° NW 06:48:24 10° N
Spot 2 3.8 06:42:36 10° N 06:46:39 69° WNW 06:50:40 10° SSW
YAOGAN 6 3.2 06:43:29 10° N 06:46:54 35° WNW 06:50:18 10° SW
SMAP 3.0 06:43:31 10° NNE 06:48:13 85° WNW 06:52:52 10° SSW
Cosmos 1825 Rocket 3.6 06:43:49 10° NNW 06:48:16 65° W 06:52:41 10° S
Cosmos 2333 Rocket 3.4 06:44:53 14° W 06:48:16 23° NW 06:52:42 10° NNE
Meteor 2-19 Rocket 4.4 06:43:29 10° NNW 06:49:34 65° W 06:55:35 10° S
Cosmos 1939 Rocket 3.7 06:47:55 10° NNE 06:51:49 54° E 06:55:38 10° S
Cosmos 2026 Rocket 4.2 06:48:18 10° NNW 06:54:23 51° W 07:00:29 10° SSW
CORIOLIS 4.2 06:51:17 10° NNE 06:56:41 87° ESE 07:02:02 10° SSW
Cosmos 1655 Rocket 4.3 06:50:31 10° N 06:56:47 76° ENE 07:03:04 10° SSE
Cosmos 540 Rocket 4.1 06:52:40 10° WSW 06:57:17 33° NW 07:01:57 10° N
NOSS 0 Rocket 4.4 06:52:22 10° WSW 06:58:10 41° NW 07:04:00 10° NNE
Lacrosse 4 Rocket 1.4 06:54:08 10° SW 06:58:24 79° NW 07:02:48 10° NNE
Cosmos 2297 4.1 06:54:51 10° NW 07:00:20 47° WSW 07:05:49 10° S
Cosmos 2058 4.1 06:56:53 10° N 07:00:53 44° ENE 07:04:50 10° SSE
NOSS 3-2 (A) 3.7 06:55:29 10° SW 07:01:13 78° SE 07:07:54 10° NE
Cosmos 1400 Rocket 3.7 06:58:27 10° SW 07:02:03 29° WNW 07:05:43 10° N
Cosmos 1455 4.2 06:59:01 10° SSE 07:02:20 31° E 07:05:42 10° NNE
Cosmos 1408 3.1 07:02:16 10° N 07:05:49 60° ENE 07:09:22 10° SSE
Cosmos 1825 3.6 07:02:27 10° N 07:06:02 39° ENE 07:09:37 10° SE
CZ-4 R/B 3.5 07:03:39 10° NNE 07:07:07 30° E 07:10:32 10° SSE
Cosmos 1300 2.9 07:03:42 10° SSW 07:07:24 48° WNW 07:11:08 10° N
SL-4 R/B 3.1 07:04:02 10° SW 07:07:46 46° SSE 07:11:49 10° E
NOAA 11 4.2 07:02:40 10° NNE 07:08:11 81° WNW 07:13:38 10° SSW
COSMOS 2428 3.9 07:04:12 10° W 07:08:33 22° NW 07:12:54 10° NNE
Cosmos 1184 Rocket 4.5 07:05:33 10° N 07:08:33 34° ENE 07:11:34 10° SE
Cosmos 1953 Rocket 3.6 07:06:01 10° NNW 07:10:16 57° W 07:14:31 10° S
NOSS 3-2 (C) 4.1 07:05:53 10° SSW 07:11:28 60° SE 07:17:56 10° NE
SWARM C 4.5 07:09:35 10° N 07:12:56 85° W 07:16:14 10° S
SWARM A 4.2 07:09:42 10° N 07:13:02 80° W 07:16:21 10° S
BREEZE-M DEB (TANK) 4.2 07:09:38 10° WSW 07:13:35 66° SSE 07:28:57 10° ENE
Cosmos 2084 Rocket 4.4 07:09:58 10° WNW 07:13:54 33° WSW 07:17:55 10° S
SL-16 R/B 4.3 07:13:42 10° NNW 07:14:15 10° N 07:14:47 10° N
Cosmos 1980 4.4 07:09:20 10° WSW 07:14:26 34° NW 07:19:34 10° NNE
Meteor 2-10 Rocket 4.3 07:09:15 10° S 07:15:00 66° E 07:20:45 10° NNE
Cosmos 2360 Rocket 4.1 07:14:53 10° NW 07:17:04 12° NNW 07:19:15 10° N
Cosmos 1656 Rocket 4.0 07:12:11 10° NNW 07:17:39 64° ENE 07:23:02 10° SE
Cosmos 2322 Rocket 4.3 07:18:37 10° NNW 07:19:03 10° N 07:19:30 10° N
Cosmos 1441 Rocket 3.5 07:16:19 10° N 07:20:19 78° ENE 07:24:15 10° SSE
